[[{"header":{"parameterUnit":"m.s-1","parameterCategory":1,"la1":30.2991,"la2":30.254,"lo1":-89.0895,"lo2":-89.0444,"dy":0.0017,"dx":0.0017,"nx":28,"ny":28,"refTime":"2025-04-23T21:00:00:Z","depth":0,"parameterNumber":2,"parameterNumberName":"U-component_of_WINDS"},"data":[0,0,0,0,0,0,0,0,0,0,0,0,0,0,0,0,0,0,0,0,0,0,0,0,0,0,0,0,0,0,0,0,0,0,0,0,0,0,0,0,0,0,0,0,0,0,0,0,0,0,0,0,0,0,0,0,0,0,-1.3163,-1.3164,0,-1.3211,-1.3212,-1.3212,-1.322,-1.3219,-1.3219,-1.3218,-1.327,-1.3272,-1.3274,0,0,0,0,0,0,0,0,0,0,0,0,0,-1.3082,-1.3083,-1.3163,-1.3164,-1.3164,-1.3211,-1.3212,-1.3212,-1.322,-1.3219,-1.3219,-1.3218,-1.327,-1.3272,-1.3274,0,0,0,0,0,0,0,0,0,0,0,0,0,-1.3122,-1.3084,-1.3163,-1.3174,-1.3175,-1.3211,-1.3212,-1.3212,-1.322,-1.3219,-1.3219,-1.3218,-1.3269,-1.3271,-1.3274,-1.3303,0,0,-1.3282,-1.3283,0,0,0,0,0,0,0,0,-1.312,-1.3125,-1.3171,-1.3173,-1.3175,-1.3209,-1.3202,-1.3243,-1.322,-1.3203,-1.3218,-1.3218,-1.325,-1.3254,-1.3265,-1.3306,-1.3308,-1.3282,-1.3284,-1.3285,-1.3286,0,0,0,0,0,0,0,-1.3117,-1.3123,-1.3182,-1.3172,-1.3174,-1.3177,-1.3182,-1.321,-1.323,-1.3204,-1.3205,-1.321,-1.3251,-1.3262,-1.3266,-1.3309,-1.3282,-1.3285,-1.3286,-1.3287,-1.3378,-1.3379,0,0,0,0,0,0,-1.3112,-1.3121,-1.3181,-1.3184,-1.3145,-1.3179,-1.3185,-1.3198,-1.3229,-1.3234,-1.3211,-1.3211,-1.3258,-1.3263,-1.3268,-1.3305,-1.3285,-1.3288,-1.3289,-1.3377,-1.3378,-1.3379,0,0,0,0,0,0,-1.311,-1.3117,-1.3179,-1.3152,-1.316,-1.3181,-1.3197,-1.32,-1.3211,-1.3234,-1.3238,-1.3219,-1.3258,-1.3264,-1.3295,-1.3307,-1.3289,-1.3291,-1.3376,-1.3377,-1.3379,-1.3379,0,0,0,0,0,0,-1.3108,-1.3116,-1.3127,-1.3152,-1.3162,-1.3203,-1.3197,-1.3201,-1.3215,-1.3215,-1.3243,-1.3246,-1.3258,-1.3291,-1.3297,-1.3311,-1.3293,-1.3375,-1.3377,-1.3378,-1.3378,-1.3381,-1.3382,0,0,0,0,0,-1.3105,-1.3125,-1.3127,-1.3134,-1.3175,-1.3204,-1.3209,-1.3221,-1.3216,-1.3227,-1.3243,-1.3246,-1.3305,-1.3294,-1.3301,-1.3315,-1.3374,-1.3376,-1.3378,-1.3377,-1.338,-1.3382,0,0,0,0,0,0,-1.3101,-1.3129,-1.3131,-1.316,-1.318,-1.3205,-1.3219,-1.3223,-1.3245,-1.3244,-1.3259,-1.3265,-1.3295,-1.3309,-1.3296,-1.3346,-1.3339,-1.3343,-1.3336,-1.3339,-1.3341,-1.3337,-1.3296,0,0,0,0,0,-1.3103,-1.3123,-1.3147,-1.3171,-1.318,-1.3198,-1.3211,-1.3219,-1.324,-1.3248,-1.3266,-1.3287,-1.3311,-1.3326,-1.3348,-1.3381,-1.3388,-1.3394,-1.3396,-1.3398,-1.3401,-1.342,-1.3424,-1.3385,-1.3385,-1.3385,0,0,-1.3109,-1.3127,-1.3138,-1.3171,-1.3186,-1.3208,-1.3205,-1.3228,-1.3245,-1.3252,-1.3282,-1.3296,-1.332,-1.3352,-1.3367,-1.3364,-1.3413,-1.34,-1.3401,-1.3403,-1.3422,-1.3426,-1.3429,-1.3386,-1.3386,-1.3386,0,0,-1.313,-1.3145,-1.3167,-1.3183,-1.3207,-1.3219,-1.3224,-1.3249,-1.3259,-1.3289,-1.3295,-1.3316,-1.3356,-1.3373,-1.3388,-1.3417,-1.3421,-1.3425,-1.3435,-1.3454,-1.3457,-1.346,-1.3471,-1.3475,-1.3427,-1.3427,-1.3427,0,-1.3134,-1.3166,-1.3177,-1.32,-1.3215,-1.3222,-1.3246,-1.3261,-1.3291,-1.3302,-1.3298,-1.3349,-1.3366,-1.3403,-1.341,-1.3422,-1.3429,-1.3421,-1.3455,-1.3458,-1.3461,-1.3472,-1.3476,-1.3428,-1.3427,-1.3427,-1.3427,0,-1.317,-1.3192,-1.3207,-1.3236,-1.3252,-1.3275,-1.3292,-1.3307,-1.3314,-1.3327,-1.3359,-1.338,-1.3407,-1.3417,-1.3424,-1.3455,-1.3453,-1.3452,-1.3445,-1.3465,-1.3475,-1.348,-1.3428,-1.3428,-1.3428,-1.3428,0,0,-1.3188,-1.3224,-1.323,-1.3243,-1.3271,-1.3289,-1.3314,-1.334,-1.3354,-1.3375,-1.3397,-1.3431,-1.3431,-1.3447,-1.3456,-1.3473,-1.3497,-1.347,-1.3471,-1.3475,-1.3534,-1.3534,-1.3539,-1.35,-1.35,-1.3501,-1.3532,0,-1.3213,-1.3255,-1.3267,-1.3303,-1.3325,-1.3333,-1.3354,-1.3374,-1.3388,-1.3409,-1.3424,-1.3449,-1.3446,-1.3456,-1.3473,-1.349,-1.3509,-1.3488,-1.3521,-1.3522,-1.3514,-1.3544,-1.3545,-1.3573,-1.3536,-1.3537,-1.3537,0,-1.3247,-1.3269,-1.3306,-1.3333,-1.3342,-1.3361,-1.3387,-1.3407,-1.3431,-1.344,-1.3458,-1.3467,-1.3494,-1.3486,-1.3524,-1.351,-1.3525,-1.3535,-1.3537,-1.354,-1.3531,-1.3549,-1.3582,-1.3586,-1.3544,-1.3544,-1.3543,0,-1.3258,-1.3296,-1.3324,-1.3336,-1.3367,-1.338,-1.3394,-1.3417,-1.3433,-1.3456,-1.3467,-1.3494,-1.3508,-1.353,-1.3546,-1.3538,-1.3583,-1.3576,-1.3592,-1.3592,-1.3601,-1.36,-1.3637,-1.361,-1.361,-1.361,-1.361,0,-1.3284,-1.3307,-1.3329,-1.3347,-1.3373,-1.3388,-1.3415,-1.3429,-1.345,-1.3471,-1.3481,-1.3501,-1.352,-1.3543,-1.3556,-1.3587,-1.3594,-1.3602,-1.3605,-1.3602,-1.36,-1.3611,-1.361,-1.3611,-1.3611,-1.3611,-1.361,0,-1.33,-1.3316,-1.3347,-1.3374,-1.3382,-1.34,-1.3424,-1.3442,-1.3456,-1.3483,-1.3491,-1.3513,-1.3541,-1.3559,-1.3595,-1.3604,-1.3638,-1.364,-1.3629,-1.3631,-1.3646,-1.3644,-1.3691,-1.3698,-1.3666,-1.3666,-1.3666,0,-1.3315,-1.3333,-1.3363,-1.3377,-1.3391,-1.3414,-1.343,-1.3446,-1.3463,-1.3493,-1.3507,-1.3536,-1.3559,-1.3604,-1.3624,-1.3652,-1.3656,-1.367,-1.366,-1.3656,-1.3657,-1.3656,-1.3658,-1.3672,-1.3672,-1.3672,-1.3673,0,-1.3342,-1.3349,-1.3371,-1.3397,-1.3416,-1.3437,-1.3459,-1.347,-1.349,-1.3509,-1.3537,-1.3556,-1.3593,-1.3621,-1.3651,-1.3667,-1.3674,-1.3676,-1.3681,-1.3677,-1.367,-1.3675,-1.3634,-1.3674,-1.3674,-1.3674,-1.3674,-1.3674,-1.3359,-1.3375,-1.3399,-1.3424,-1.3442,-1.3462,-1.348,-1.3497,-1.352,-1.3551,-1.3559,-1.3589,-1.3615,-1.3656,-1.3672,-1.3697,-1.3695,-1.3703,-1.3705,-1.3706,-1.3707,-1.3666,-1.3703,-1.3703,-1.3703,-1.3703,-1.3703,0,-1.3386,-1.3402,-1.3425,-1.3454,-1.3474,-1.3478,-1.3502,-1.3519,-1.3545,-1.3568,-1.3591,-1.3625,-1.3653,-1.3676,-1.3706,-1.3721,-1.3725,-1.3729,-1.3728,-1.3732,-1.3706,-1.3699,-1.3725,-1.3725,-1.3725,-1.3725,-1.3725,-1.3725,-1.3403,-1.3431,-1.3442,-1.348,-1.3496,-1.3525,-1.3538,-1.3558,-1.3576,-1.3613,-1.3636,-1.3651,-1.3674,-1.3706,-1.3733,-1.3739,-1.375,-1.3752,-1.376,-1.3736,-1.3733,-1.3731,-1.3724,-1.3755,-1.3755,-1.3783,-1.3783,-1.3783]},{"header":{"parameterUnit":"m.s-1","parameterCategory":1,"la1":30.2991,"la2":30.254,"lo1":-89.0895,"lo2":-89.0444,"dy":0.0017,"dx":0.0017,"nx":28,"ny":28,"refTime":"2025-04-23T21:00:00:Z","depth":0,"parameterNumber":3,"parameterNumberName":"V-component_of_WINDS"},"data":[0,0,0,0,0,0,0,0,0,0,0,0,0,0,0,0,0,0,0,0,0,0,0,0,0,0,0,0,0,0,0,0,0,0,0,0,0,0,0,0,0,0,0,0,0,0,0,0,0,0,0,0,0,0,0,0,0,0,3.1202,3.1201,0,3.1152,3.1152,3.1151,3.1153,3.1154,3.1154,3.1155,3.1099,3.1096,3.1094,0,0,0,0,0,0,0,0,0,0,0,0,0,3.1293,3.1291,3.1202,3.1201,3.12,3.1152,3.1152,3.1151,3.1153,3.1154,3.1155,3.1155,3.1099,3.1097,3.1094,0,0,0,0,0,0,0,0,0,0,0,0,0,3.1249,3.1291,3.1202,3.1196,3.1195,3.1152,3.1152,3.1151,3.1153,3.1154,3.1155,3.1156,3.11,3.1097,3.1094,3.1052,0,0,3.1084,3.1082,0,0,0,0,0,0,0,0,3.1252,3.1246,3.1197,3.1196,3.1195,3.116,3.1163,3.1117,3.1152,3.1168,3.1155,3.1156,3.1118,3.1113,3.1101,3.105,3.1047,3.1084,3.1082,3.108,3.1079,0,0,0,0,0,0,0,3.1255,3.1248,3.1182,3.1197,3.1195,3.1194,3.1189,3.1154,3.1137,3.1167,3.1167,3.1162,3.1117,3.1104,3.11,3.1047,3.1084,3.1081,3.1079,3.1077,3.0958,3.0957,0,0,0,0,0,0,3.126,3.1251,3.1183,3.118,3.1227,3.1191,3.1186,3.117,3.1138,3.1134,3.1161,3.1162,3.1109,3.1104,3.1098,3.1047,3.108,3.1077,3.1075,3.0959,3.0958,3.0957,0,0,0,0,0,0,3.1262,3.1254,3.1185,3.1216,3.1207,3.1189,3.1171,3.1168,3.1156,3.1133,3.113,3.1151,3.111,3.1103,3.1064,3.1045,3.1076,3.1073,3.0961,3.0959,3.0957,3.0946,0,0,0,0,0,0,3.1264,3.1255,3.124,3.1215,3.1205,3.1154,3.117,3.1167,3.1151,3.1152,3.1123,3.1119,3.111,3.1069,3.1061,3.1041,3.107,3.0962,3.096,3.0958,3.0948,3.0944,3.094,0,0,0,0,0,3.1268,3.1237,3.1239,3.1231,3.1187,3.1153,3.1147,3.1139,3.1149,3.1133,3.1119,3.112,3.1049,3.1065,3.1056,3.1035,3.0964,3.0961,3.0958,3.0949,3.0944,3.094,0,0,0,0,0,0,3.1258,3.1234,3.1236,3.1197,3.1177,3.1153,3.1133,3.1134,3.1109,3.1111,3.11,3.1094,3.1055,3.1041,3.106,3.0993,3.1007,3.1003,3.1004,3.0999,3.0995,3.0999,3.1068,0,0,0,0,0,3.1252,3.1228,3.1208,3.1175,3.1165,3.1151,3.1136,3.1132,3.111,3.1101,3.1084,3.1061,3.1034,3.1016,3.0989,3.0946,3.0939,3.0927,3.0924,3.0921,3.0916,3.0892,3.0886,3.0948,3.0948,3.0948,0,0,3.1237,3.1221,3.1207,3.1173,3.1157,3.1131,3.1144,3.1116,3.1096,3.1096,3.1059,3.1046,3.102,3.0979,3.096,3.0966,3.0898,3.0917,3.0915,3.0912,3.0889,3.0883,3.0878,3.0946,3.0946,3.0946,0,0,3.1199,3.1185,3.1156,3.1141,3.1117,3.1108,3.1101,3.1078,3.1069,3.1033,3.1032,3.1008,3.0961,3.0943,3.0927,3.0882,3.0882,3.0874,3.0854,3.083,3.0826,3.0821,3.0805,3.0799,3.087,3.087,3.087,0,3.1183,3.1146,3.1141,3.1113,3.1098,3.1099,3.1069,3.1054,3.1022,3.1011,3.1019,3.096,3.0943,3.0897,3.0887,3.0874,3.0865,3.0876,3.0827,3.0823,3.0818,3.0802,3.0796,3.0869,3.0869,3.0869,3.0869,0,3.1128,3.1103,3.1082,3.1054,3.1036,3.1007,3.0996,3.0979,3.0976,3.0965,3.0928,3.0907,3.0877,3.0866,3.0862,3.0819,3.0824,3.083,3.0843,3.0812,3.0796,3.079,3.0867,3.0868,3.0868,3.0868,0,0,3.1081,3.1051,3.1044,3.1031,3.1006,3.0985,3.0956,3.0928,3.0913,3.0891,3.0865,3.0826,3.0832,3.0814,3.0808,3.0788,3.0753,3.0796,3.0795,3.0788,3.0704,3.07,3.0693,3.0753,3.0752,3.0751,3.0706,0,3.1039,3.0989,3.0984,3.0939,3.0915,3.0916,3.089,3.0871,3.0861,3.0837,3.0825,3.0797,3.0807,3.0796,3.0776,3.0762,3.0736,3.0765,3.0728,3.0727,3.0734,3.0685,3.068,3.0638,3.07,3.0699,3.0698,0,3.0983,3.0962,3.0915,3.0894,3.0884,3.0861,3.0835,3.0813,3.0791,3.0785,3.0766,3.0763,3.0732,3.0748,3.0703,3.0723,3.0708,3.0698,3.0697,3.0692,3.071,3.0678,3.0625,3.0618,3.0689,3.069,3.0691,0,3.0952,3.0912,3.0879,3.0868,3.0843,3.0827,3.0815,3.0795,3.0778,3.0755,3.0744,3.0717,3.0701,3.068,3.0669,3.0682,3.0625,3.064,3.0618,3.0618,3.0605,3.0606,3.0548,3.0596,3.0596,3.0596,3.0597,0,3.0906,3.0877,3.0865,3.0845,3.0812,3.0806,3.0773,3.0762,3.0743,3.072,3.0718,3.0696,3.0684,3.0659,3.065,3.0614,3.0607,3.06,3.0598,3.06,3.0601,3.0589,3.0591,3.0595,3.0595,3.0595,3.0596,0,3.0865,3.0857,3.0821,3.08,3.0794,3.0771,3.0753,3.0732,3.0723,3.0692,3.0685,3.0669,3.064,3.0627,3.059,3.0585,3.0544,3.0544,3.0551,3.0551,3.0529,3.0531,3.046,3.045,3.0506,3.0506,3.0505,0,3.0836,3.0814,3.0792,3.0777,3.0765,3.0741,3.0725,3.0717,3.07,3.0674,3.0656,3.0628,3.0604,3.0557,3.0541,3.0513,3.0512,3.0489,3.0507,3.051,3.0511,3.0512,3.0509,3.0485,3.0485,3.0484,3.0484,0,3.0784,3.0781,3.0759,3.0735,3.0717,3.0697,3.0678,3.0665,3.0655,3.0635,3.0606,3.0588,3.0552,3.0523,3.0494,3.048,3.048,3.0479,3.0472,3.0473,3.0478,3.0475,3.0542,3.048,3.048,3.0481,3.0481,3.0481,3.0748,3.0728,3.071,3.0685,3.0671,3.0653,3.0633,3.0622,3.0598,3.0569,3.0566,3.0535,3.0513,3.0475,3.046,3.0434,3.044,3.043,3.0427,3.0425,3.0423,3.0483,3.0429,3.0429,3.0429,3.0429,3.0429,0,3.0695,3.0684,3.0662,3.0636,3.0616,3.062,3.0599,3.0582,3.0555,3.0536,3.0514,3.048,3.0452,3.0435,3.0406,3.0389,3.0388,3.0382,3.0382,3.0379,3.042,3.0429,3.0383,3.0383,3.0383,3.0383,3.0383,3.0383,3.0666,3.0634,3.0629,3.0589,3.0577,3.0548,3.0536,3.0519,3.0504,3.0467,3.0445,3.0434,3.0415,3.0385,3.036,3.0355,3.0344,3.0337,3.0333,3.0371,3.0376,3.0381,3.0389,3.0335,3.0335,3.0294,3.0293,3.0293]}]]